This is the latest recevied weather packets stored in our database for station/object W4SNA-2. If no packets are shown the sender has not sent any weather packets the latest 10 day(s).
| Time | Temp. | Humidity | Pressure | Rain* | Wind** | Luminosity | Snow |
|---|---|---|---|---|---|---|---|
| 1777827187 | 11.67° C | 40% | 1019.9 hPa | 0 mm | - | - | - |
| 1777826887 | 11.67° C | 39% | 1020.1 hPa | 0 mm | - | - | - |
| 1777826587 | 11.67° C | 39% | 1020.1 hPa | 0 mm | - | - | - |
| 1777826287 | 11.67° C | 38% | 1020.2 hPa | 0 mm | - | - | - |
| 1777825987 | 11.67° C | 38% | 1020.3 hPa | 0 mm | - | - | - |
| 1777825687 | 12.22° C | 42% | 1020.3 hPa | 0 mm | - | - | - |
| 1777825387 | 11.67° C | 40% | 1020.4 hPa | 0 mm | - | - | - |
| 1777825087 | 11.67° C | 42% | 1020.5 hPa | 0 mm | - | - | - |
| 1777824787 | 11.67° C | 42% | 1020.6 hPa | 0 mm | - | - | - |
| 1777824487 | 11.11° C | 41% | 1020.4 hPa | 0 mm | - | - | - |
| 1777824187 | 11.11° C | 41% | 1020.4 hPa | 0 mm | - | - | - |
| 1777823887 | 11.11° C | 42% | 1020.5 hPa | 0 mm | - | - | - |
| 1777823587 | 10.56° C | 42% | 1020.6 hPa | 0 mm | - | - | - |
| 1777823287 | 11.11° C | 42% | 1020.6 hPa | 0 mm | - | - | - |
| 1777822987 | 10.56° C | 43% | 1020.5 hPa | 0 mm | - | - | - |
| 1777822687 | 10.56° C | 45% | 1020.6 hPa | 0 mm | - | - | - |
| 1777822387 | 10.56° C | 44% | 1020.5 hPa | 0 mm | - | - | - |
| 1777822087 | 10.56° C | 46% | 1020.6 hPa | 0 mm | - | - | - |
| 1777821788 | 10.56° C | 45% | 1020.6 hPa | 0 mm | - | - | - |
| 1777821487 | 10° C | 45% | 1020.6 hPa | 0 mm | - | - | - |
| 1777821187 | 9.44° C | 44% | 1020.6 hPa | 0 mm | - | - | - |
| 1777820887 | 9.44° C | 48% | 1020.6 hPa | 0 mm | - | - | - |
| 1777820587 | 9.44° C | 48% | 1020.6 hPa | 0 mm | - | - | - |
| 1777820287 | 9.44° C | 48% | 1020.4 hPa | 0 mm | - | - | - |
| 1777819987 | 8.89° C | 49% | 1020.5 hPa | 0 mm | - | - | - |
* Rain latest hour (hover to see other rain measurements)
** Current wind speed in m/s (hover to see current wind gust speed)